CMP713 SVMC-MPTO

Flight info

Callsign CMP713
Flight time 1h 23m
Altitude 38000
Route ASIBA1 GAVIS A552 UTKIV UQ125 BAQ UL220 CTG UL335 BOGAL
Aircraft B738/M-SDE3FGHIRWY/S

Departure

Time 2026-04-28 01:14
Airport La Chinita International Airport (SVMC)

Arrival

Time 2026-04-28 02:37
Airport Tocumen International Airport (MPTO)
Time Latitude Longitude Altitude Speed Heading
2026-04-28 00:32 10.55702 -71.72441 217 ft 0 kts 131°
2026-04-28 01:04 10.55703 -71.72442 217 ft 1 kts 131°
2026-04-28 01:04 10.55714 -71.72455 220 ft 3 kts 126°
2026-04-28 01:04 10.55726 -71.72472 219 ft 3 kts 136°
2026-04-28 01:04 10.55742 -71.72484 223 ft 3 kts 146°
2026-04-28 01:05 10.55758 -71.72496 217 ft 3 kts 146°
2026-04-28 01:05 10.55764 -71.72499 221 ft 10 kts 149°
2026-04-28 01:09 10.55763 -71.72499 217 ft 1 kts 150°
2026-04-28 01:09 10.55751 -71.72499 219 ft 3 kts 192°
2026-04-28 01:10 10.55713 -71.72517 225 ft 9 kts 205°
2026-04-28 01:10 10.55642 -71.72549 221 ft 14 kts 204°
2026-04-28 01:10 10.55540 -71.72594 222 ft 18 kts 203°
2026-04-28 01:10 10.55417 -71.72642 225 ft 20 kts 204°
2026-04-28 01:11 10.55377 -71.72736 225 ft 17 kts 294°
2026-04-28 01:11 10.55404 -71.72852 215 ft 18 kts 244°
2026-04-28 01:11 10.55296 -71.72914 221 ft 19 kts 203°
2026-04-28 01:11 10.55172 -71.72967 217 ft 20 kts 202°
2026-04-28 01:12 10.55036 -71.73025 216 ft 22 kts 202°
2026-04-28 01:12 10.54888 -71.73087 217 ft 24 kts 202°
2026-04-28 01:12 10.54733 -71.73159 214 ft 25 kts 216°
2026-04-28 01:12 10.54609 -71.73273 218 ft 23 kts 225°
2026-04-28 01:13 10.54603 -71.73386 220 ft 17 kts 320°
2026-04-28 01:13 10.54964 -71.73255 219 ft 71 kts 22°
2026-04-28 01:13 10.55611 -71.72979 223 ft 129 kts 22°
2026-04-28 01:14 10.56588 -71.72567 239 ft 173 kts 21°
2026-04-28 01:14 10.57723 -71.72060 730 ft 178 kts 24°
2026-04-28 01:14 10.58867 -71.71544 1360 ft 185 kts 23°
2026-04-28 01:14 10.60112 -71.71016 1890 ft 199 kts 22°
2026-04-28 01:15 10.61505 -71.70720 2297 ft 216 kts
2026-04-28 01:15 10.62962 -71.71244 2554 ft 240 kts 322°
2026-04-28 01:15 10.63872 -71.72710 2895 ft 262 kts 285°
2026-04-28 01:15 10.64078 -71.74612 3323 ft 277 kts 274°
2026-04-28 01:16 10.64155 -71.76601 4125 ft 280 kts 273°
2026-04-28 01:16 10.64227 -71.78565 4925 ft 283 kts 273°
2026-04-28 01:16 10.64315 -71.80579 5680 ft 287 kts 273°
2026-04-28 01:16 10.64424 -71.82645 6452 ft 291 kts 273°
2026-04-28 01:17 10.64546 -71.84714 7195 ft 294 kts 274°
2026-04-28 01:17 10.64676 -71.86761 7953 ft 296 kts 274°
2026-04-28 01:17 10.64815 -71.88855 8700 ft 298 kts 274°
2026-04-28 01:17 10.64960 -71.90966 9458 ft 301 kts 274°
2026-04-28 01:18 10.65109 -71.93104 10143 ft 306 kts 274°
2026-04-28 01:18 10.65263 -71.95300 10627 ft 317 kts 274°
2026-04-28 01:18 10.65423 -71.97551 11254 ft 321 kts 274°
2026-04-28 01:18 10.65584 -71.99821 11998 ft 323 kts 274°
2026-04-28 01:19 10.65746 -72.02103 12729 ft 326 kts 274°
2026-04-28 01:19 10.65911 -72.04412 13433 ft 329 kts 274°
2026-04-28 01:19 10.66076 -72.06746 14115 ft 333 kts 274°
2026-04-28 01:19 10.66244 -72.09104 14761 ft 336 kts 274°
2026-04-28 01:20 10.66413 -72.11485 15432 ft 339 kts 274°
2026-04-28 01:20 10.66585 -72.13919 16118 ft 342 kts 274°
2026-04-28 01:20 10.66757 -72.16342 16795 ft 345 kts 274°
2026-04-28 01:20 10.66929 -72.18781 17452 ft 348 kts 274°
2026-04-28 01:21 10.67107 -72.21253 18126 ft 351 kts 275°
2026-04-28 01:21 10.67390 -72.23723 18711 ft 354 kts 278°
2026-04-28 01:21 10.67762 -72.26210 19252 ft 358 kts 278°
2026-04-28 01:21 10.68162 -72.28723 19786 ft 362 kts 278°
2026-04-28 01:22 10.68566 -72.31264 20322 ft 366 kts 278°
2026-04-28 01:22 10.68965 -72.33817 20921 ft 367 kts 278°
2026-04-28 01:22 10.69359 -72.36385 21542 ft 368 kts 277°
2026-04-28 01:22 10.69749 -72.38965 22111 ft 371 kts 277°
2026-04-28 01:23 10.70140 -72.41572 22638 ft 375 kts 277°
2026-04-28 01:23 10.70532 -72.44203 23180 ft 378 kts 277°
2026-04-28 01:23 10.70927 -72.46858 23688 ft 381 kts 277°
2026-04-28 01:23 10.71325 -72.49533 24144 ft 383 kts 277°
2026-04-28 01:24 10.71724 -72.52220 24598 ft 386 kts 277°
2026-04-28 01:24 10.72126 -72.54926 25034 ft 388 kts 277°
2026-04-28 01:24 10.72530 -72.57650 25469 ft 391 kts 277°
2026-04-28 01:24 10.72936 -72.60388 25897 ft 394 kts 276°
2026-04-28 01:25 10.73346 -72.63154 26347 ft 396 kts 276°
2026-04-28 01:25 10.73756 -72.65922 26792 ft 397 kts 276°
2026-04-28 01:25 10.74168 -72.68708 27229 ft 399 kts 276°
2026-04-28 01:25 10.74421 -72.71522 27660 ft 400 kts 270°
2026-04-28 01:26 10.74520 -72.74357 28070 ft 402 kts 269°
2026-04-28 01:26 10.74584 -72.77210 28425 ft 406 kts 269°
2026-04-28 01:26 10.74641 -72.80091 28785 ft 409 kts 269°
2026-04-28 01:26 10.74680 -72.82005 29051 ft 410 kts 269°
2026-04-28 01:27 10.74746 -72.84910 29469 ft 412 kts 269°
2026-04-28 01:27 10.74817 -72.87825 29885 ft 413 kts 269°
2026-04-28 01:27 10.74894 -72.90753 30234 ft 415 kts 269°
2026-04-28 01:27 10.74973 -72.93700 30540 ft 418 kts 269°
2026-04-28 01:28 10.75054 -72.96660 30868 ft 419 kts 269°
2026-04-28 01:28 10.75136 -72.99628 31184 ft 421 kts 270°
2026-04-28 01:28 10.75218 -73.02601 31503 ft 422 kts 270°
2026-04-28 01:28 10.75300 -73.05591 31829 ft 424 kts 269°
2026-04-28 01:29 10.75382 -73.08593 32114 ft 426 kts 270°
2026-04-28 01:29 10.75464 -73.11607 32404 ft 427 kts 269°
2026-04-28 01:29 10.75546 -73.14633 32689 ft 429 kts 269°
2026-04-28 01:29 10.75627 -73.17672 32988 ft 430 kts 269°
2026-04-28 01:30 10.75709 -73.20715 33290 ft 431 kts 269°
2026-04-28 01:30 10.75790 -73.23770 33547 ft 433 kts 269°
2026-04-28 01:30 10.75872 -73.26835 33832 ft 434 kts 269°
2026-04-28 01:30 10.75953 -73.29912 34077 ft 436 kts 269°
2026-04-28 01:31 10.76035 -73.33005 34226 ft 439 kts 269°
2026-04-28 01:31 10.76116 -73.36103 34479 ft 439 kts 269°
2026-04-28 01:31 10.76198 -73.39208 34759 ft 439 kts 269°
2026-04-28 01:31 10.76280 -73.42313 35033 ft 439 kts 269°
2026-04-28 01:32 10.76360 -73.45423 35229 ft 441 kts 268°
2026-04-28 01:32 10.76415 -73.48539 35375 ft 441 kts 269°
2026-04-28 01:32 10.76497 -73.51654 35558 ft 442 kts 269°
2026-04-28 01:32 10.76587 -73.54782 35740 ft 442 kts 269°
2026-04-28 01:33 10.76677 -73.57902 36053 ft 440 kts 269°
2026-04-28 01:33 10.76762 -73.61008 36352 ft 439 kts 269°
2026-04-28 01:33 10.76842 -73.64108 36612 ft 438 kts 269°
2026-04-28 01:33 10.76920 -73.67208 36871 ft 438 kts 269°
2026-04-28 01:34 10.76997 -73.70302 37123 ft 437 kts 269°
2026-04-28 01:34 10.77076 -73.73429 37414 ft 436 kts 269°
2026-04-28 01:34 10.77152 -73.76505 37653 ft 435 kts 268°
2026-04-28 01:34 10.77224 -73.79576 37863 ft 435 kts 268°
2026-04-28 01:35 10.77294 -73.82642 38017 ft 433 kts 268°
2026-04-28 01:35 10.77364 -73.85705 38006 ft 434 kts 268°
2026-04-28 01:35 10.77502 -73.91853 37994 ft 435 kts 268°
2026-04-28 01:36 10.77642 -73.98013 37976 ft 436 kts 268°
2026-04-28 01:36 10.77779 -74.04201 38042 ft 440 kts 268°
2026-04-28 01:37 10.77848 -74.07308 38225 ft 440 kts 268°
2026-04-28 01:37 10.77917 -74.10420 38497 ft 438 kts 268°
2026-04-28 01:37 10.77986 -74.13503 38733 ft 436 kts 268°
2026-04-28 01:37 10.78055 -74.16584 38902 ft 435 kts 268°
2026-04-28 01:38 10.78122 -74.19661 39043 ft 435 kts 268°
2026-04-28 01:38 10.78189 -74.22736 39204 ft 434 kts 268°
2026-04-28 01:38 10.78256 -74.25802 39390 ft 433 kts 268°
2026-04-28 01:38 10.78322 -74.28860 39565 ft 432 kts 268°
2026-04-28 01:39 10.78387 -74.31909 39713 ft 431 kts 268°
2026-04-28 01:39 10.78452 -74.34953 39823 ft 430 kts 268°
2026-04-28 01:39 10.78581 -74.41051 39865 ft 433 kts 268°
2026-04-28 01:40 10.78710 -74.47163 39875 ft 432 kts 268°
2026-04-28 01:40 10.78837 -74.53259 39889 ft 431 kts 268°
2026-04-28 01:41 10.78963 -74.59349 39898 ft 430 kts 268°
2026-04-28 01:41 10.79088 -74.65430 39906 ft 430 kts 268°
2026-04-28 01:42 10.79211 -74.71501 39909 ft 429 kts 268°
2026-04-28 01:42 10.79333 -74.77565 39911 ft 428 kts 268°
2026-04-28 01:43 10.79202 -74.83585 39895 ft 422 kts 254°
2026-04-28 01:43 10.78308 -74.86400 39921 ft 417 kts 243°
2026-04-28 01:43 10.76884 -74.88955 39912 ft 414 kts 231°
2026-04-28 01:44 10.73058 -74.93303 39919 ft 413 kts 226°
2026-04-28 01:44 10.69104 -74.97540 39924 ft 414 kts 226°
2026-04-28 01:45 10.65163 -75.01819 39932 ft 415 kts 226°
2026-04-28 01:45 10.61233 -75.06133 39933 ft 416 kts 226°
2026-04-28 01:46 10.57306 -75.10459 39939 ft 417 kts 226°
2026-04-28 01:46 10.53362 -75.14804 39943 ft 418 kts 226°
2026-04-28 01:47 10.49409 -75.19156 39936 ft 419 kts 226°
2026-04-28 01:47 10.45421 -75.23543 39924 ft 421 kts 226°
2026-04-28 01:48 10.41476 -75.27883 39926 ft 421 kts 226°
2026-04-28 01:48 10.37499 -75.32255 39920 ft 421 kts 226°
2026-04-28 01:49 10.33496 -75.36655 39932 ft 421 kts 226°
2026-04-28 01:49 10.29525 -75.41018 39917 ft 421 kts 226°
2026-04-28 01:50 10.25556 -75.45378 39932 ft 420 kts 226°
2026-04-28 01:50 10.21765 -75.49873 39917 ft 420 kts 235°
2026-04-28 01:51 10.19181 -75.55189 39940 ft 422 kts 249°
2026-04-28 01:51 10.17332 -75.60828 39941 ft 421 kts 250°
2026-04-28 01:52 10.15504 -75.66474 39928 ft 421 kts 250°
2026-04-28 01:52 10.13654 -75.72109 39929 ft 420 kts 249°
2026-04-28 01:53 10.11791 -75.77732 39936 ft 420 kts 249°
2026-04-28 01:53 10.09925 -75.83343 39935 ft 420 kts 249°
2026-04-28 01:54 10.08057 -75.88957 39934 ft 420 kts 249°
2026-04-28 01:54 10.06187 -75.94572 39933 ft 420 kts 249°
2026-04-28 01:55 10.04317 -76.00186 39937 ft 420 kts 249°
2026-04-28 01:55 10.02446 -76.05799 39936 ft 420 kts 249°
2026-04-28 01:56 10.00571 -76.11419 39936 ft 421 kts 249°
2026-04-28 01:56 9.98694 -76.17045 39934 ft 421 kts 249°
2026-04-28 01:57 9.96816 -76.22668 39937 ft 421 kts 249°
2026-04-28 01:57 9.94933 -76.28302 39935 ft 422 kts 249°
2026-04-28 01:58 9.93048 -76.33939 39946 ft 422 kts 249°
2026-04-28 01:58 9.91162 -76.39577 39939 ft 422 kts 249°
2026-04-28 01:59 9.89272 -76.45221 39935 ft 423 kts 249°
2026-04-28 01:59 9.87381 -76.50866 39948 ft 423 kts 249°
2026-04-28 02:00 9.85488 -76.56515 39937 ft 423 kts 249°
2026-04-28 02:00 9.83593 -76.62166 39936 ft 423 kts 249°
2026-04-28 02:01 9.81697 -76.67816 39935 ft 423 kts 249°
2026-04-28 02:01 9.79801 -76.73460 39941 ft 423 kts 249°
2026-04-28 02:02 9.77904 -76.79107 39944 ft 423 kts 249°
2026-04-28 02:02 9.76006 -76.84753 39940 ft 423 kts 249°
2026-04-28 02:03 9.74428 -76.89444 39944 ft 423 kts 249°
2026-04-28 02:03 9.72532 -76.95076 39947 ft 422 kts 249°
2026-04-28 02:04 9.70635 -77.00709 39947 ft 422 kts 249°
2026-04-28 02:04 9.68738 -77.06339 39946 ft 422 kts 249°
2026-04-28 02:05 9.66843 -77.11961 39945 ft 422 kts 249°
2026-04-28 02:05 9.64946 -77.17585 39950 ft 421 kts 249°
2026-04-28 02:06 9.63051 -77.23199 39950 ft 421 kts 249°
2026-04-28 02:06 9.61153 -77.28819 39961 ft 421 kts 249°
2026-04-28 02:07 9.59255 -77.34436 39947 ft 421 kts 249°
2026-04-28 02:07 9.57342 -77.40092 39763 ft 425 kts 250°
2026-04-28 02:08 9.56366 -77.42947 39271 ft 429 kts 249°
2026-04-28 02:08 9.55330 -77.45770 38751 ft 427 kts 248°
2026-04-28 02:08 9.54257 -77.48574 38209 ft 426 kts 248°
2026-04-28 02:08 9.53182 -77.51351 37778 ft 421 kts 247°
2026-04-28 02:09 9.52121 -77.54094 37344 ft 417 kts 247°
2026-04-28 02:09 9.51073 -77.56819 36948 ft 413 kts 247°
2026-04-28 02:09 9.50040 -77.59519 36549 ft 409 kts 247°
2026-04-28 02:09 9.49019 -77.62197 36162 ft 406 kts 247°
2026-04-28 02:10 9.48008 -77.64854 35785 ft 402 kts 247°
2026-04-28 02:10 9.47005 -77.67492 35388 ft 400 kts 247°
2026-04-28 02:10 9.46009 -77.70114 34996 ft 398 kts 247°
2026-04-28 02:10 9.45019 -77.72717 34593 ft 396 kts 246°
2026-04-28 02:11 9.44030 -77.75316 34211 ft 394 kts 246°
2026-04-28 02:11 9.43045 -77.77905 33774 ft 393 kts 246°
2026-04-28 02:11 9.42064 -77.80484 33360 ft 391 kts 246°
2026-04-28 02:11 9.41090 -77.83043 32961 ft 389 kts 246°
2026-04-28 02:12 9.40119 -77.85593 32576 ft 387 kts 246°
2026-04-28 02:12 9.39154 -77.88129 32192 ft 385 kts 246°
2026-04-28 02:12 9.38194 -77.90649 31817 ft 383 kts 246°
2026-04-28 02:12 9.37240 -77.93152 31443 ft 381 kts 246°
2026-04-28 02:13 9.36289 -77.95648 31070 ft 379 kts 245°
2026-04-28 02:13 9.35340 -77.98138 30686 ft 378 kts 245°
2026-04-28 02:13 9.34394 -78.00618 30312 ft 377 kts 245°
2026-04-28 02:13 9.33450 -78.03095 29916 ft 376 kts 245°
2026-04-28 02:14 9.32509 -78.05560 29503 ft 374 kts 245°
2026-04-28 02:14 9.31574 -78.08011 29109 ft 372 kts 245°
2026-04-28 02:14 9.30645 -78.10446 28707 ft 369 kts 246°
2026-04-28 02:14 9.29724 -78.12861 28317 ft 367 kts 246°
2026-04-28 02:15 9.27893 -78.17655 27553 ft 363 kts 246°
2026-04-28 02:15 9.27071 -78.20066 27163 ft 363 kts 256°
2026-04-28 02:15 9.26841 -78.22638 26553 ft 371 kts 266°
2026-04-28 02:16 9.26811 -78.25259 26113 ft 372 kts 268°
2026-04-28 02:16 9.26817 -78.27871 25722 ft 371 kts 268°
2026-04-28 02:16 9.26825 -78.30476 25336 ft 370 kts 268°
2026-04-28 02:16 9.26824 -78.33075 24967 ft 368 kts 268°
2026-04-28 02:17 9.26813 -78.35658 24604 ft 367 kts 268°
2026-04-28 02:17 9.26795 -78.38236 24269 ft 364 kts 268°
2026-04-28 02:17 9.26771 -78.40791 23894 ft 363 kts 269°
2026-04-28 02:17 9.26744 -78.43348 23521 ft 363 kts 269°
2026-04-28 02:18 9.26715 -78.45898 23098 ft 361 kts 269°
2026-04-28 02:18 9.26686 -78.48433 22716 ft 359 kts 269°
2026-04-28 02:18 9.26657 -78.50947 22335 ft 357 kts 269°
2026-04-28 02:18 9.26627 -78.53452 21968 ft 354 kts 269°
2026-04-28 02:19 9.26597 -78.55937 21608 ft 352 kts 269°
2026-04-28 02:19 9.26567 -78.58409 21245 ft 350 kts 269°
2026-04-28 02:19 9.26538 -78.60861 20892 ft 348 kts 269°
2026-04-28 02:19 9.26508 -78.63307 20537 ft 347 kts 269°
2026-04-28 02:20 9.26478 -78.65742 20180 ft 345 kts 269°
2026-04-28 02:20 9.26448 -78.68166 19821 ft 344 kts 269°
2026-04-28 02:20 9.26418 -78.70584 19468 ft 343 kts 269°
2026-04-28 02:20 9.26388 -78.72995 19103 ft 343 kts 269°
2026-04-28 02:21 9.26358 -78.75410 18740 ft 342 kts 269°
2026-04-28 02:21 9.26327 -78.77814 18381 ft 342 kts 270°
2026-04-28 02:21 9.26297 -78.80221 17988 ft 342 kts 270°
2026-04-28 02:21 9.26267 -78.82623 17614 ft 340 kts 270°
2026-04-28 02:22 9.26237 -78.85011 17253 ft 338 kts 270°
2026-04-28 02:22 9.26206 -78.87385 16900 ft 336 kts 270°
2026-04-28 02:22 9.26176 -78.89747 16551 ft 335 kts 270°
2026-04-28 02:22 9.26145 -78.92094 16206 ft 333 kts 269°
2026-04-28 02:23 9.26115 -78.94431 15862 ft 331 kts 269°
2026-04-28 02:23 9.26084 -78.96758 15515 ft 330 kts 269°
2026-04-28 02:23 9.26054 -78.99073 15171 ft 328 kts 269°
2026-04-28 02:23 9.26029 -79.00994 14892 ft 327 kts 269°
2026-04-28 02:24 9.26001 -79.03085 14577 ft 326 kts 269°
2026-04-28 02:24 9.25971 -79.05371 14228 ft 325 kts 269°
2026-04-28 02:24 9.25940 -79.07660 13897 ft 324 kts 269°
2026-04-28 02:24 9.25909 -79.09935 13528 ft 323 kts 269°
2026-04-28 02:25 9.25697 -79.12186 13143 ft 322 kts 253°
2026-04-28 02:25 9.24689 -79.14177 12779 ft 319 kts 231°
2026-04-28 02:25 9.23042 -79.15672 12409 ft 318 kts 214°
2026-04-28 02:25 9.21209 -79.16916 12014 ft 316 kts 213°
2026-04-28 02:26 9.19375 -79.18113 11624 ft 311 kts 212°
2026-04-28 02:26 9.17573 -79.19287 11231 ft 305 kts 212°
2026-04-28 02:26 9.15797 -79.20453 10887 ft 305 kts 213°
2026-04-28 02:26 9.14020 -79.21629 10523 ft 306 kts 213°
2026-04-28 02:27 9.12231 -79.22819 10137 ft 308 kts 213°
2026-04-28 02:27 9.10443 -79.24012 9902 ft 304 kts 213°
2026-04-28 02:27 9.08701 -79.25177 9619 ft 301 kts 213°
2026-04-28 02:27 9.06943 -79.26352 9243 ft 302 kts 213°
2026-04-28 02:28 9.05199 -79.27519 8854 ft 298 kts 213°
2026-04-28 02:28 9.03478 -79.28670 8380 ft 295 kts 213°
2026-04-28 02:28 9.01759 -79.29794 7919 ft 292 kts 210°
2026-04-28 02:28 8.99997 -79.30790 7469 ft 289 kts 208°
2026-04-28 02:29 8.98231 -79.31738 7098 ft 284 kts 207°
2026-04-28 02:29 8.96482 -79.32674 6729 ft 285 kts 207°
2026-04-28 02:29 8.94701 -79.33634 6333 ft 289 kts 208°
2026-04-28 02:29 8.92953 -79.34586 5928 ft 287 kts 208°
2026-04-28 02:30 8.91200 -79.35544 5656 ft 276 kts 208°
2026-04-28 02:30 8.89595 -79.36423 5558 ft 255 kts 208°
2026-04-28 02:30 8.88072 -79.37257 5272 ft 244 kts 208°
2026-04-28 02:30 8.86613 -79.38056 5004 ft 233 kts 209°
2026-04-28 02:31 8.85410 -79.39066 4715 ft 221 kts 238°
2026-04-28 02:31 8.84945 -79.40485 4384 ft 211 kts 269°
2026-04-28 02:31 8.85165 -79.41935 4013 ft 205 kts 293°
2026-04-28 02:31 8.85816 -79.43163 3743 ft 196 kts 303°
2026-04-28 02:32 8.86531 -79.44311 3559 ft 186 kts 303°
2026-04-28 02:32 8.87204 -79.45380 3401 ft 182 kts 304°
2026-04-28 02:32 8.87952 -79.46430 3278 ft 181 kts 318°
2026-04-28 02:32 8.88987 -79.47084 3109 ft 177 kts 342°
2026-04-28 02:33 8.90209 -79.47254 2938 ft 175 kts
2026-04-28 02:33 8.91360 -79.46922 2744 ft 171 kts 29°
2026-04-28 02:33 8.92374 -79.46332 2573 ft 167 kts 29°
2026-04-28 02:33 8.93388 -79.45768 2491 ft 168 kts 28°
2026-04-28 02:34 8.94411 -79.45190 2295 ft 165 kts 29°
2026-04-28 02:34 8.95382 -79.44634 2054 ft 152 kts 28°
2026-04-28 02:34 8.96281 -79.44120 1871 ft 147 kts 29°
2026-04-28 02:34 8.97166 -79.43613 1686 ft 145 kts 29°
2026-04-28 02:35 8.98049 -79.43107 1492 ft 147 kts 28°
2026-04-28 02:35 8.98939 -79.42597 1308 ft 148 kts 28°
2026-04-28 02:35 8.99825 -79.42089 1143 ft 146 kts 28°
2026-04-28 02:35 9.00709 -79.41582 979 ft 146 kts 28°
2026-04-28 02:36 9.01602 -79.41072 794 ft 148 kts 29°
2026-04-28 02:36 9.02492 -79.40561 602 ft 146 kts 27°
2026-04-28 02:36 9.03374 -79.40058 379 ft 144 kts 26°
2026-04-28 02:36 9.04245 -79.39560 194 ft 144 kts 27°
2026-04-28 02:37 9.05120 -79.39056 40 ft 142 kts 26°
2026-04-28 02:37 9.05878 -79.38625 31 ft 106 kts 28°
2026-04-28 02:37 9.06275 -79.38403 30 ft 31 kts 26°
2026-04-28 02:37 9.06442 -79.38376 29 ft 18 kts 359°
2026-04-28 02:38 9.06541 -79.38377 29 ft 11 kts 359°
2026-04-28 02:38 9.06613 -79.38379 29 ft 10 kts 348°
2026-04-28 02:38 9.06658 -79.38424 29 ft 9 kts 302°
2026-04-28 02:38 9.06640 -79.38468 29 ft 8 kts 211°
2026-04-28 02:39 9.06582 -79.38501 29 ft 12 kts 208°
2026-04-28 02:39 9.06500 -79.38544 29 ft 15 kts 207°
2026-04-28 02:39 9.06412 -79.38590 29 ft 11 kts 207°
2026-04-28 02:39 9.06357 -79.38618 29 ft 7 kts 206°
2026-04-28 02:40 9.06330 -79.38641 29 ft 4 kts 247°
2026-04-28 02:40 9.06351 -79.38700 29 ft 10 kts 300°
2026-04-28 02:40 9.06390 -79.38766 29 ft 11 kts 302°
2026-04-28 02:40 9.06411 -79.38809 29 ft 9 kts 284°
2026-04-28 02:41 9.06415 -79.38858 29 ft 5 kts 272°
2026-04-28 02:41 9.06415 -79.38874 29 ft 0 kts 271°